Time,TemperatureF,DewpointF,PressureIn,WindDirection,WindDirectionDegrees,WindSpeedMPH,WindSpeedGustMPH,Humidity,HourlyPrecipIn,Conditions,Clouds,dailyrainin,SolarRadiationWatts/m^2,SoftwareType,DateUTC
2013-06-24 00:01:00,62.1,60.0,29.56,WSW,240,1.0,3.0,93,0.00,,,0.00,0,WeatherCatV1.14B232,2013-06-24 07:01:00,
2013-06-24 00:06:00,62.0,59.9,29.56,WSW,242,0.0,0.0,93,0.00,,,0.00,0,WeatherCatV1.14B232,2013-06-24 07:06:00,
2013-06-24 00:11:00,62.0,59.9,29.56,WSW,242,0.0,0.0,93,0.00,,,0.00,0,WeatherCatV1.14B232,2013-06-24 07:11:00,
2013-06-24 00:16:00,61.8,59.8,29.56,WSW,242,0.0,1.0,93,0.00,,,0.00,0,WeatherCatV1.14B232,2013-06-24 07:16:00,
2013-06-24 00:21:00,61.6,59.6,29.56,SW,233,0.0,1.0,93,0.00,,,0.01,0,WeatherCatV1.14B232,2013-06-24 07:21:00,
2013-06-24 00:26:00,61.6,59.6,29.56,SW,233,0.0,0.0,93,0.14,,,0.02,0,WeatherCatV1.14B232,2013-06-24 07:26:00,
2013-06-24 00:31:00,61.5,59.5,29.56,SW,233,0.0,0.0,93,0.33,,,0.05,0,WeatherCatV1.14B232,2013-06-24 07:31:00,
2013-06-24 00:36:00,61.3,59.3,29.56,SW,233,0.0,0.0,93,0.46,,,0.09,0,WeatherCatV1.14B232,2013-06-24 07:36:00,
2013-06-24 00:41:00,61.3,59.3,29.56,SW,233,0.0,0.0,93,0.23,,,0.11,0,WeatherCatV1.14B232,2013-06-24 07:41:00,
2013-06-24 00:46:00,61.2,59.2,29.56,SW,233,0.0,0.0,93,0.14,,,0.12,0,WeatherCatV1.14B232,2013-06-24 07:46:00,
2013-06-24 00:51:00,61.2,59.2,29.56,SW,233,0.0,0.0,93,0.14,,,0.14,0,WeatherCatV1.14B232,2013-06-24 07:51:00,
2013-06-24 00:56:00,61.0,59.0,29.56,SW,233,0.0,0.0,93,0.10,,,0.14,0,WeatherCatV1.14B232,2013-06-24 07:56:00,
2013-06-24 01:01:00,61.0,59.0,29.56,SW,233,0.0,0.0,93,0.06,,,0.14,0,WeatherCatV1.14B232,2013-06-24 08:01:00,
2013-06-24 01:06:00,61.0,59.3,29.56,SW,233,0.0,0.0,94,0.04,,,0.14,0,WeatherCatV1.14B232,2013-06-24 08:06:00,
2013-06-24 01:11:00,61.0,59.3,29.56,SW,233,0.0,0.0,94,0.00,,,0.14,0,WeatherCatV1.14B232,2013-06-24 08:11:00,
2013-06-24 01:16:00,61.0,59.3,29.56,South,174,0.0,1.0,94,0.00,,,0.14,0,WeatherCatV1.14B232,2013-06-24 08:16:00,
2013-06-24 01:21:00,61.0,59.3,29.56,South,174,0.0,1.0,94,0.00,,,0.14,0,WeatherCatV1.14B232,2013-06-24 08:21:00,
2013-06-24 01:26:00,61.0,59.3,29.56,South,174,0.0,0.0,94,0.00,,,0.14,0,WeatherCatV1.14B232,2013-06-24 08:26:00,
2013-06-24 01:31:00,61.0,59.6,29.56,South,174,0.0,0.0,95,0.00,,,0.14,0,WeatherCatV1.14B232,2013-06-24 08:31:00,
2013-06-24 01:36:00,61.0,59.6,29.56,South,174,0.0,0.0,95,0.00,,,0.14,0,WeatherCatV1.14B232,2013-06-24 08:36:00,
2013-06-24 01:41:00,61.0,59.6,29.56,South,174,0.0,1.0,95,0.00,,,0.14,0,WeatherCatV1.14B232,2013-06-24 08:41:00,
2013-06-24 01:46:00,61.0,59.6,29.56,South,174,0.0,0.0,95,0.00,,,0.14,0,WeatherCatV1.14B232,2013-06-24 08:46:00,
2013-06-24 01:51:00,61.0,59.6,29.56,SSE,160,0.0,1.0,95,0.00,,,0.14,0,WeatherCatV1.14B232,2013-06-24 08:51:00,
2013-06-24 01:56:00,61.0,59.6,29.56,SSE,160,0.0,0.0,95,0.00,,,0.14,0,WeatherCatV1.14B232,2013-06-24 08:56:00,
2013-06-24 02:01:00,61.0,59.6,29.56,SSE,160,0.0,0.0,95,0.00,,,0.14,0,WeatherCatV1.14B232,2013-06-24 09:01:00,
2013-06-24 02:06:00,61.0,59.6,29.56,SE,128,0.0,2.0,95,0.00,,,0.14,0,WeatherCatV1.14B232,2013-06-24 09:06:00,
2013-06-24 02:11:00,61.0,59.6,29.56,SE,128,0.0,0.0,95,0.00,,,0.14,0,WeatherCatV1.14B232,2013-06-24 09:11:00,
2013-06-24 02:16:00,60.9,59.5,29.55,SE,128,0.0,1.0,95,0.00,,,0.14,0,WeatherCatV1.14B232,2013-06-24 09:16:00,
2013-06-24 02:21:00,60.9,59.5,29.55,SE,128,0.0,0.0,95,0.00,,,0.14,0,WeatherCatV1.14B232,2013-06-24 09:21:00,
2013-06-24 02:26:00,60.9,59.5,29.55,SE,128,0.0,0.0,95,0.00,,,0.14,0,WeatherCatV1.14B232,2013-06-24 09:26:00,
2013-06-24 02:31:00,60.7,59.3,29.55,SE,128,0.0,1.0,95,0.00,,,0.14,0,WeatherCatV1.14B232,2013-06-24 09:31:00,
2013-06-24 02:36:00,60.7,59.3,29.55,SE,127,0.0,2.0,95,0.00,,,0.14,0,WeatherCatV1.14B232,2013-06-24 09:36:00,
2013-06-24 02:41:00,60.7,59.3,29.55,East,81,4.0,4.0,95,0.00,,,0.14,0,WeatherCatV1.14B232,2013-06-24 09:41:00,
2013-06-24 02:46:00,60.5,59.1,29.55,East,97,0.0,1.0,95,0.00,,,0.14,0,WeatherCatV1.14B232,2013-06-24 09:46:00,
2013-06-24 02:51:00,60.5,59.1,29.55,East,97,0.0,0.0,95,0.00,,,0.14,0,WeatherCatV1.14B232,2013-06-24 09:51:00,
2013-06-24 02:56:00,60.5,59.1,29.55,East,97,0.0,0.0,95,0.00,,,0.14,0,WeatherCatV1.14B232,2013-06-24 09:56:00,
2013-06-24 03:01:00,60.5,59.1,29.55,East,98,1.0,1.0,95,0.00,,,0.14,0,WeatherCatV1.14B232,2013-06-24 10:01:00,
2013-06-24 03:06:00,60.4,59.0,29.55,East,97,0.0,1.0,95,0.00,,,0.14,0,WeatherCatV1.14B232,2013-06-24 10:06:00,
2013-06-24 03:11:00,60.4,59.0,29.55,East,97,0.0,0.0,95,0.00,,,0.14,0,WeatherCatV1.14B232,2013-06-24 10:11:00,
2013-06-24 03:16:00,60.2,58.8,29.55,East,90,0.0,0.0,95,0.00,,,0.14,0,WeatherCatV1.14B232,2013-06-24 10:16:00,
2013-06-24 03:21:00,60.2,58.8,29.55,East,90,0.0,0.0,95,0.00,,,0.14,0,WeatherCatV1.14B232,2013-06-24 10:21:00,
2013-06-24 03:26:00,60.2,58.8,29.55,East,90,0.0,3.0,95,0.00,,,0.14,0,WeatherCatV1.14B232,2013-06-24 10:26:00,
2013-06-24 03:31:00,60.1,58.7,29.55,East,90,0.0,0.0,95,0.00,,,0.14,0,WeatherCatV1.14B232,2013-06-24 10:31:00,
2013-06-24 03:36:00,60.1,59.0,29.55,East,90,0.0,0.0,96,0.00,,,0.14,0,WeatherCatV1.14B232,2013-06-24 10:36:00,
2013-06-24 03:41:00,60.1,59.0,29.55,East,90,0.0,0.0,96,0.00,,,0.14,0,WeatherCatV1.14B232,2013-06-24 10:41:00,
2013-06-24 03:46:00,60.1,59.0,29.55,East,84,0.0,1.0,96,0.00,,,0.14,0,WeatherCatV1.14B232,2013-06-24 10:46:00,
2013-06-24 03:51:00,59.9,58.8,29.55,East,84,0.0,0.0,96,0.00,,,0.15,0,WeatherCatV1.14B232,2013-06-24 10:51:00,
2013-06-24 03:56:00,59.9,58.8,29.55,East,84,0.0,0.0,96,0.00,,,0.15,0,WeatherCatV1.14B232,2013-06-24 10:56:00,
2013-06-24 04:01:00,59.9,58.8,29.54,East,84,0.0,0.0,96,0.00,,,0.15,0,WeatherCatV1.14B232,2013-06-24 11:01:00,
2013-06-24 04:06:00,59.9,58.8,29.54,East,84,0.0,0.0,96,0.00,,,0.15,0,WeatherCatV1.14B232,2013-06-24 11:06:00,
2013-06-24 04:11:00,59.8,58.7,29.54,East,84,0.0,0.0,96,0.00,,,0.15,0,WeatherCatV1.14B232,2013-06-24 11:11:00,
2013-06-24 04:16:00,59.8,58.7,29.54,East,84,0.0,0.0,96,0.00,,,0.15,0,WeatherCatV1.14B232,2013-06-24 11:16:00,
2013-06-24 04:21:00,59.8,58.7,29.54,East,84,0.0,0.0,96,0.00,,,0.15,0,WeatherCatV1.14B232,2013-06-24 11:21:00,
2013-06-24 04:26:00,59.6,58.5,29.54,East,84,0.0,0.0,96,0.00,,,0.15,0,WeatherCatV1.14B232,2013-06-24 11:26:00,
2013-06-24 04:31:00,59.6,58.5,29.54,East,84,0.0,0.0,96,0.00,,,0.15,0,WeatherCatV1.14B232,2013-06-24 11:31:00,
2013-06-24 04:36:00,59.6,58.5,29.54,East,84,0.0,0.0,96,0.00,,,0.15,0,WeatherCatV1.14B232,2013-06-24 11:36:00,
2013-06-24 04:41:00,59.6,58.5,29.54,East,84,0.0,0.0,96,0.00,,,0.15,0,WeatherCatV1.14B232,2013-06-24 11:41:00,
2013-06-24 04:46:00,59.5,58.4,29.54,East,84,0.0,0.0,96,0.00,,,0.15,0,WeatherCatV1.14B232,2013-06-24 11:46:00,
2013-06-24 04:51:00,59.5,58.4,29.54,East,84,0.0,0.0,96,0.00,,,0.15,0,WeatherCatV1.14B232,2013-06-24 11:51:00,
2013-06-24 04:56:00,59.5,58.4,29.54,East,84,0.0,0.0,96,0.00,,,0.15,0,WeatherCatV1.14B232,2013-06-24 11:56:00,
2013-06-24 05:01:00,59.3,58.2,29.54,East,84,0.0,0.0,96,0.00,,,0.15,0,WeatherCatV1.14B232,2013-06-24 12:01:00,
2013-06-24 05:06:00,59.3,58.2,29.54,East,84,0.0,0.0,96,0.00,,,0.15,0,WeatherCatV1.14B232,2013-06-24 12:06:00,
2013-06-24 05:11:00,59.3,58.2,29.54,East,84,0.0,0.0,96,0.00,,,0.15,5,WeatherCatV1.14B232,2013-06-24 12:11:00,
2013-06-24 05:16:00,59.3,58.2,29.54,East,84,0.0,0.0,96,0.00,,,0.15,7,WeatherCatV1.14B232,2013-06-24 12:16:00,
2013-06-24 05:21:00,59.2,58.1,29.54,East,84,0.0,0.0,96,0.00,,,0.15,12,WeatherCatV1.14B232,2013-06-24 12:21:00,
2013-06-24 05:26:00,59.2,58.1,29.54,East,84,0.0,0.0,96,0.00,,,0.15,16,WeatherCatV1.14B232,2013-06-24 12:26:00,
2013-06-24 05:31:00,59.2,58.1,29.54,East,84,0.0,0.0,96,0.00,,,0.15,18,WeatherCatV1.14B232,2013-06-24 12:31:00,
2013-06-24 05:36:00,59.2,58.1,29.54,East,84,0.0,1.0,96,0.00,,,0.15,19,WeatherCatV1.14B232,2013-06-24 12:36:00,
2013-06-24 05:41:00,59.2,58.1,29.54,East,84,1.0,1.0,96,0.00,,,0.15,19,WeatherCatV1.14B232,2013-06-24 12:41:00,
2013-06-24 05:46:00,59.2,58.1,29.54,East,84,1.0,2.0,96,0.00,,,0.15,18,WeatherCatV1.14B232,2013-06-24 12:46:00,
2013-06-24 05:51:00,59.2,58.1,29.54,East,84,0.0,0.0,96,0.00,,,0.15,18,WeatherCatV1.14B232,2013-06-24 12:51:00,
2013-06-24 05:56:00,59.2,58.1,29.54,East,91,0.0,3.0,96,0.00,,,0.15,21,WeatherCatV1.14B232,2013-06-24 12:56:00,
2013-06-24 06:01:00,59.2,58.1,29.54,East,91,0.0,1.0,96,0.00,,,0.15,25,WeatherCatV1.14B232,2013-06-24 13:01:00,
2013-06-24 06:06:00,59.2,58.1,29.54,East,91,1.0,1.0,96,0.00,,,0.15,32,WeatherCatV1.14B232,2013-06-24 13:06:00,
2013-06-24 06:11:00,59.2,58.1,29.54,East,91,0.0,1.0,96,0.00,,,0.15,37,WeatherCatV1.14B232,2013-06-24 13:11:00,
2013-06-24 06:16:00,59.2,58.1,29.54,East,91,0.0,0.0,96,0.00,,,0.15,42,WeatherCatV1.14B232,2013-06-24 13:16:00,
2013-06-24 06:21:00,59.2,58.1,29.54,East,91,0.0,0.0,96,0.00,,,0.15,47,WeatherCatV1.14B232,2013-06-24 13:21:00,
2013-06-24 06:26:00,59.2,58.1,29.54,East,91,0.0,0.0,96,0.00,,,0.15,54,WeatherCatV1.14B232,2013-06-24 13:26:00,
2013-06-24 06:31:00,59.2,58.1,29.54,East,91,0.0,0.0,96,0.00,,,0.15,56,WeatherCatV1.14B232,2013-06-24 13:31:00,
2013-06-24 06:36:00,59.3,58.2,29.54,East,91,0.0,0.0,96,0.00,,,0.15,56,WeatherCatV1.14B232,2013-06-24 13:36:00,
2013-06-24 06:41:00,59.3,58.4,29.54,East,91,0.0,0.0,97,0.00,,,0.15,60,WeatherCatV1.14B232,2013-06-24 13:41:00,
2013-06-24 06:46:00,59.5,58.6,29.54,East,91,0.0,0.0,97,0.00,,,0.15,65,WeatherCatV1.14B232,2013-06-24 13:46:00,
2013-06-24 06:51:00,59.5,58.6,29.54,East,91,0.0,0.0,97,0.00,,,0.15,69,WeatherCatV1.14B232,2013-06-24 13:51:00,
2013-06-24 06:56:00,59.6,58.7,29.54,East,91,0.0,0.0,97,0.00,,,0.15,74,WeatherCatV1.14B232,2013-06-24 13:56:00,
2013-06-24 07:01:00,59.6,58.7,29.54,East,91,0.0,0.0,97,0.00,,,0.15,67,WeatherCatV1.14B232,2013-06-24 14:01:00,
2013-06-24 07:06:00,59.8,58.9,29.54,East,91,0.0,0.0,97,0.00,,,0.15,40,WeatherCatV1.14B232,2013-06-24 14:06:00,
2013-06-24 07:11:00,59.8,58.9,29.54,East,91,0.0,0.0,97,0.00,,,0.15,51,WeatherCatV1.14B232,2013-06-24 14:11:00,
2013-06-24 07:16:00,59.9,59.0,29.55,East,91,0.0,0.0,97,0.00,,,0.15,54,WeatherCatV1.14B232,2013-06-24 14:16:00,
2013-06-24 07:21:00,60.1,59.2,29.55,East,91,0.0,0.0,97,0.00,,,0.15,53,WeatherCatV1.14B232,2013-06-24 14:21:00,
2013-06-24 07:26:00,60.1,59.2,29.55,East,91,0.0,0.0,97,0.00,,,0.15,19,WeatherCatV1.14B232,2013-06-24 14:26:00,
2013-06-24 07:31:00,60.2,59.3,29.56,SW,236,4.0,11.0,97,1.17,,,0.21,21,WeatherCatV1.14B232,2013-06-24 14:31:00,
2013-06-24 07:36:00,59.9,58.8,29.56,SW,220,0.0,0.0,96,0.15,,,0.22,35,WeatherCatV1.14B232,2013-06-24 14:36:00,
2013-06-24 07:41:00,59.6,58.5,29.56,SE,126,0.0,1.0,96,0.07,,,0.22,53,WeatherCatV1.14B232,2013-06-24 14:41:00,
2013-06-24 07:46:00,59.5,58.4,29.56,SE,126,0.0,0.0,96,0.04,,,0.22,91,WeatherCatV1.14B232,2013-06-24 14:46:00,
2013-06-24 07:51:00,59.5,58.6,29.56,SE,126,1.0,3.0,97,0.00,,,0.22,114,WeatherCatV1.14B232,2013-06-24 14:51:00,
2013-06-24 07:56:00,59.3,58.2,29.56,NNE,30,0.0,3.0,96,0.00,,,0.22,102,WeatherCatV1.14B232,2013-06-24 14:56:00,
2013-06-24 08:01:00,59.2,58.1,29.57,ESE,102,0.0,5.0,96,0.00,,,0.22,100,WeatherCatV1.14B232,2013-06-24 15:01:00,
2013-06-24 08:06:00,58.9,57.8,29.57,South,178,3.0,3.0,96,0.00,,,0.22,86,WeatherCatV1.14B232,2013-06-24 15:06:00,
2013-06-24 08:10:00,58.6,57.5,29.57,ENE,69,0.0,1.0,96,0.00,,,0.22,84,WeatherCatV1.14B232,2013-06-24 15:10:00,
2013-06-24 08:15:00,58.3,57.2,29.58,East,88,0.0,2.0,96,0.00,,,0.22,65,WeatherCatV1.14B232,2013-06-24 15:15:00,
2013-06-24 08:20:00,58.1,57.0,29.58,East,88,0.0,0.0,96,0.00,,,0.22,49,WeatherCatV1.14B232,2013-06-24 15:20:00,
2013-06-24 08:25:00,57.8,56.4,29.58,ENE,67,1.0,8.0,95,0.00,,,0.22,46,WeatherCatV1.14B232,2013-06-24 15:25:00,
2013-06-24 08:30:00,57.6,56.2,29.59,NNE,28,2.0,2.0,95,0.00,,,0.22,47,WeatherCatV1.14B232,2013-06-24 15:30:00,
2013-06-24 08:35:00,57.3,55.9,29.59,East,93,0.0,1.0,95,0.00,,,0.22,60,WeatherCatV1.14B232,2013-06-24 15:35:00,
2013-06-24 08:40:00,57.2,55.8,29.59,East,99,1.0,4.0,95,0.00,,,0.22,77,WeatherCatV1.14B232,2013-06-24 15:40:00,
2013-06-24 08:45:00,57.0,55.6,29.60,ESE,119,0.0,3.0,95,0.00,,,0.22,88,WeatherCatV1.14B232,2013-06-24 15:45:00,
2013-06-24 08:50:00,56.9,55.5,29.60,ESE,115,0.0,2.0,95,0.00,,,0.23,84,WeatherCatV1.14B232,2013-06-24 15:50:00,
2013-06-24 08:55:00,56.7,55.3,29.60,SE,125,0.0,0.0,95,0.14,,,0.24,98,WeatherCatV1.14B232,2013-06-24 15:55:00,
2013-06-24 09:00:00,56.7,55.3,29.61,East,100,0.0,3.0,95,0.06,,,0.24,116,WeatherCatV1.14B232,2013-06-24 16:00:00,
2013-06-24 09:05:00,56.6,55.2,29.61,East,80,0.0,3.0,95,0.04,,,0.24,137,WeatherCatV1.14B232,2013-06-24 16:05:00,
2013-06-24 09:10:00,56.6,55.2,29.61,SE,126,0.0,1.0,95,0.00,,,0.24,137,WeatherCatV1.14B232,2013-06-24 16:10:00,
2013-06-24 09:15:00,56.6,55.2,29.62,East,81,0.0,0.0,95,0.00,,,0.24,134,WeatherCatV1.14B232,2013-06-24 16:15:00,
2013-06-24 09:20:00,56.6,55.2,29.62,SE,138,0.0,3.0,95,0.00,,,0.24,153,WeatherCatV1.14B232,2013-06-24 16:20:00,
2013-06-24 09:25:00,56.6,55.2,29.62,SE,138,0.0,0.0,95,0.00,,,0.25,195,WeatherCatV1.14B232,2013-06-24 16:25:00,
2013-06-24 09:30:00,56.7,55.6,29.62,East,91,0.0,1.0,96,0.00,,,0.25,204,WeatherCatV1.14B232,2013-06-24 16:30:00,
2013-06-24 09:35:00,57.0,55.9,29.62,ESE,117,0.0,2.0,96,0.00,,,0.25,207,WeatherCatV1.14B232,2013-06-24 16:35:00,
2013-06-24 09:40:00,57.0,55.9,29.62,ESE,119,0.0,3.0,96,0.00,,,0.25,216,WeatherCatV1.14B232,2013-06-24 16:40:00,
2013-06-24 09:45:00,57.0,55.9,29.63,ESE,103,2.0,7.0,96,0.00,,,0.25,216,WeatherCatV1.14B232,2013-06-24 16:45:00,
2013-06-24 09:50:00,57.0,55.6,29.63,East,88,0.0,0.0,95,0.00,,,0.25,220,WeatherCatV1.14B232,2013-06-24 16:50:00,
2013-06-24 09:55:00,57.0,55.6,29.63,ESE,121,0.0,0.0,95,0.00,,,0.25,221,WeatherCatV1.14B232,2013-06-24 16:55:00,
2013-06-24 10:00:00,57.2,55.8,29.63,East,94,0.0,3.0,95,0.00,,,0.25,258,WeatherCatV1.14B232,2013-06-24 17:00:00,
2013-06-24 10:05:00,57.2,55.8,29.63,East,99,3.0,3.0,95,0.00,,,0.26,230,WeatherCatV1.14B232,2013-06-24 17:05:00,
2013-06-24 10:10:00,57.2,55.8,29.63,SE,124,3.0,3.0,95,0.00,,,0.26,234,WeatherCatV1.14B232,2013-06-24 17:10:00,
2013-06-24 10:15:00,57.2,55.8,29.63,SE,143,1.0,4.0,95,0.00,,,0.26,250,WeatherCatV1.14B232,2013-06-24 17:15:00,
2013-06-24 10:20:00,57.2,55.8,29.63,SE,130,0.0,2.0,95,0.00,,,0.26,260,WeatherCatV1.14B232,2013-06-24 17:20:00,
2013-06-24 10:25:00,57.3,55.9,29.63,ESE,115,2.0,3.0,95,0.00,,,0.26,323,WeatherCatV1.14B232,2013-06-24 17:25:00,
2013-06-24 10:30:00,57.2,55.8,29.64,SE,128,0.0,6.0,95,0.00,,,0.26,404,WeatherCatV1.14B232,2013-06-24 17:30:00,
2013-06-24 10:35:00,57.0,55.3,29.64,SSE,157,0.0,3.0,94,0.00,,,0.26,427,WeatherCatV1.14B232,2013-06-24 17:35:00,
2013-06-24 10:40:00,57.3,55.9,29.64,ESE,108,0.0,3.0,95,0.00,,,0.26,353,WeatherCatV1.14B232,2013-06-24 17:40:00,
2013-06-24 10:45:00,57.5,55.8,29.63,East,81,5.0,5.0,94,0.00,,,0.26,267,WeatherCatV1.14B232,2013-06-24 17:45:00,
2013-06-24 10:50:00,57.5,55.8,29.63,ESE,121,1.0,3.0,94,0.00,,,0.26,221,WeatherCatV1.14B232,2013-06-24 17:50:00,
2013-06-24 10:55:00,57.5,55.5,29.63,SE,124,0.0,4.0,93,0.00,,,0.26,202,WeatherCatV1.14B232,2013-06-24 17:55:00,
2013-06-24 11:00:00,57.3,55.3,29.63,SE,130,0.0,0.0,93,0.00,,,0.26,229,WeatherCatV1.14B232,2013-06-24 18:00:00,
2013-06-24 11:05:00,57.5,55.5,29.63,East,90,0.0,2.0,93,0.00,,,0.26,265,WeatherCatV1.14B232,2013-06-24 18:05:00,
2013-06-24 11:10:00,57.5,55.5,29.63,ESE,106,0.0,2.0,93,0.00,,,0.26,276,WeatherCatV1.14B232,2013-06-24 18:10:00,
2013-06-24 11:15:00,57.6,55.6,29.63,ESE,102,0.0,0.0,93,0.00,,,0.26,302,WeatherCatV1.14B232,2013-06-24 18:15:00,
2013-06-24 11:21:00,57.8,55.8,29.63,SE,145,1.0,3.0,93,0.00,,,0.26,338,WeatherCatV1.14B232,2013-06-24 18:21:00,
2013-06-24 11:26:00,57.8,55.8,29.63,ESE,115,2.0,5.0,93,0.00,,,0.26,285,WeatherCatV1.14B232,2013-06-24 18:26:00,
2013-06-24 11:31:00,57.8,55.5,29.64,ESE,112,6.0,6.0,92,0.00,,,0.26,216,WeatherCatV1.14B232,2013-06-24 18:31:00,
2013-06-24 11:36:00,57.6,55.3,29.64,ESE,119,1.0,5.0,92,0.00,,,0.26,246,WeatherCatV1.14B232,2013-06-24 18:36:00,
2013-06-24 11:41:00,57.8,55.5,29.64,ESE,112,1.0,4.0,92,0.00,,,0.26,243,WeatherCatV1.14B232,2013-06-24 18:41:00,
2013-06-24 11:46:00,58.0,55.7,29.64,ESE,107,0.0,0.0,92,0.00,,,0.26,237,WeatherCatV1.14B232,2013-06-24 18:46:00,
2013-06-24 11:51:00,58.1,55.8,29.64,SE,130,0.0,3.0,92,0.00,,,0.26,223,WeatherCatV1.14B232,2013-06-24 18:51:00,
2013-06-24 11:56:00,58.3,56.0,29.64,SE,142,1.0,2.0,92,0.00,,,0.26,269,WeatherCatV1.14B232,2013-06-24 18:56:00,
2013-06-24 12:01:00,58.4,56.4,29.64,ENE,76,0.0,2.0,93,0.00,,,0.26,325,WeatherCatV1.14B232,2013-06-24 19:01:00,
2013-06-24 12:06:00,58.7,56.4,29.64,ESE,113,0.0,3.0,92,0.00,,,0.26,327,WeatherCatV1.14B232,2013-06-24 19:06:00,
2013-06-24 12:11:00,58.7,56.1,29.64,SE,132,0.0,6.0,91,0.00,,,0.26,383,WeatherCatV1.14B232,2013-06-24 19:11:00,
2013-06-24 12:16:00,59.0,56.4,29.64,ESE,116,1.0,3.0,91,0.00,,,0.26,431,WeatherCatV1.14B232,2013-06-24 19:16:00,
2013-06-24 12:21:00,59.3,56.4,29.64,ESE,105,0.0,2.0,90,0.00,,,0.26,464,WeatherCatV1.14B232,2013-06-24 19:21:00,
2013-06-24 12:26:00,59.8,56.2,29.64,ESE,107,0.0,1.0,88,0.00,,,0.26,346,WeatherCatV1.14B232,2013-06-24 19:26:00,
2013-06-24 12:31:00,59.3,55.4,29.64,SE,136,0.0,9.0,87,0.00,,,0.26,418,WeatherCatV1.14B232,2013-06-24 19:31:00,
2013-06-24 12:36:00,59.5,55.3,29.64,SE,126,0.0,5.0,86,0.00,,,0.26,559,WeatherCatV1.14B232,2013-06-24 19:36:00,
2013-06-24 12:41:00,60.4,56.5,29.64,ESE,118,0.0,3.0,87,0.00,,,0.26,534,WeatherCatV1.14B232,2013-06-24 19:41:00,
2013-06-24 12:46:00,60.2,54.7,29.64,SE,131,0.0,5.0,82,0.00,,,0.26,533,WeatherCatV1.14B232,2013-06-24 19:46:00,
2013-06-24 12:51:00,60.9,55.4,29.64,ESE,115,3.0,4.0,82,0.00,,,0.26,633,WeatherCatV1.14B232,2013-06-24 19:51:00,
2013-06-24 12:56:00,61.3,55.1,29.64,East,91,0.0,7.0,80,0.00,,,0.26,369,WeatherCatV1.14B232,2013-06-24 19:56:00,
2013-06-24 13:01:00,61.2,55.7,29.64,ESE,103,0.0,0.0,82,0.00,,,0.26,418,WeatherCatV1.14B232,2013-06-24 20:01:00,
2013-06-24 13:06:00,61.3,55.8,29.64,ESE,115,0.0,0.0,82,0.00,,,0.26,216,WeatherCatV1.14B232,2013-06-24 20:06:00,
2013-06-24 13:11:00,61.0,55.1,29.64,ESE,118,5.0,5.0,81,0.00,,,0.26,346,WeatherCatV1.14B232,2013-06-24 20:11:00,
2013-06-24 13:16:00,60.7,54.5,29.64,ENE,71,3.0,4.0,80,0.00,,,0.26,322,WeatherCatV1.14B232,2013-06-24 20:16:00,
2013-06-24 13:21:00,60.9,55.7,29.64,ESE,107,1.0,2.0,83,0.00,,,0.26,418,WeatherCatV1.14B232,2013-06-24 20:21:00,
2013-06-24 13:26:00,60.9,54.0,29.64,SE,124,0.0,3.0,78,0.00,,,0.26,464,WeatherCatV1.14B232,2013-06-24 20:26:00,
2013-06-24 13:31:00,61.6,55.0,29.64,SE,134,0.0,2.0,79,0.00,,,0.26,526,WeatherCatV1.14B232,2013-06-24 20:31:00,
2013-06-24 13:36:00,62.1,54.4,29.64,ESE,113,0.0,4.0,76,0.00,,,0.26,531,WeatherCatV1.14B232,2013-06-24 20:36:00,
2013-06-24 13:41:00,62.9,54.1,29.64,ESE,105,2.0,4.0,73,0.00,,,0.26,758,WeatherCatV1.14B232,2013-06-24 20:41:00,
2013-06-24 13:46:00,63.9,54.7,29.64,East,89,2.0,5.0,72,0.00,,,0.26,759,WeatherCatV1.14B232,2013-06-24 20:46:00,
2013-06-24 13:51:00,64.2,56.1,29.64,East,87,3.0,3.0,75,0.00,,,0.26,802,WeatherCatV1.14B232,2013-06-24 20:51:00,
2013-06-24 13:56:00,63.9,56.5,29.64,East,92,0.0,1.0,77,0.00,,,0.26,415,WeatherCatV1.14B232,2013-06-24 20:56:00,
2013-06-24 14:01:00,63.4,54.6,29.64,East,82,0.0,4.0,73,0.00,,,0.26,429,WeatherCatV1.14B232,2013-06-24 21:01:00,
2013-06-24 14:06:00,63.4,55.3,29.64,ESE,106,1.0,6.0,75,0.00,,,0.26,420,WeatherCatV1.14B232,2013-06-24 21:06:00,
2013-06-24 14:11:00,63.4,54.6,29.64,East,95,0.0,5.0,73,0.00,,,0.26,429,WeatherCatV1.14B232,2013-06-24 21:11:00,
2013-06-24 14:16:00,63.7,56.0,29.63,East,97,0.0,0.0,76,0.00,,,0.26,274,WeatherCatV1.14B232,2013-06-24 21:16:00,
2013-06-24 14:21:00,63.4,54.2,29.63,East,93,2.0,3.0,72,0.00,,,0.26,142,WeatherCatV1.14B232,2013-06-24 21:21:00,
2013-06-24 14:26:00,63.5,55.1,29.63,ESE,103,0.0,2.0,74,0.00,,,0.26,149,WeatherCatV1.14B232,2013-06-24 21:26:00,
2013-06-24 14:31:00,63.1,54.3,29.64,ESE,103,0.0,2.0,73,0.00,,,0.26,367,WeatherCatV1.14B232,2013-06-24 21:31:00,
2013-06-24 14:36:00,62.9,54.1,29.64,SE,139,2.0,4.0,73,0.00,,,0.26,374,WeatherCatV1.14B232,2013-06-24 21:36:00,
2013-06-24 14:41:00,63.2,54.0,29.64,ESE,117,2.0,3.0,72,0.00,,,0.26,334,WeatherCatV1.14B232,2013-06-24 21:41:00,
2013-06-24 14:46:00,63.4,55.7,29.64,ESE,118,0.0,2.0,76,0.00,,,0.26,218,WeatherCatV1.14B232,2013-06-24 21:46:00,
2013-06-24 14:51:00,63.5,55.8,29.64,ESE,118,0.0,0.0,76,0.00,,,0.26,225,WeatherCatV1.14B232,2013-06-24 21:51:00,
2013-06-24 14:56:00,63.5,56.5,29.64,SE,127,0.0,3.0,78,0.00,,,0.26,313,WeatherCatV1.14B232,2013-06-24 21:56:00,
2013-06-24 15:01:00,63.2,54.8,29.64,East,79,5.0,5.0,74,0.00,,,0.26,366,WeatherCatV1.14B232,2013-06-24 22:01:00,
2013-06-24 15:06:00,63.5,54.3,29.64,ENE,77,1.0,6.0,72,0.00,,,0.26,355,WeatherCatV1.14B232,2013-06-24 22:06:00,
2013-06-24 15:11:00,64.2,55.7,29.64,ENE,69,0.0,0.0,74,0.00,,,0.26,302,WeatherCatV1.14B232,2013-06-24 22:11:00,
2013-06-24 15:16:00,64.0,55.2,29.64,ENE,69,0.0,0.0,73,0.00,,,0.26,260,WeatherCatV1.14B232,2013-06-24 22:16:00,
2013-06-24 15:21:00,63.9,55.1,29.64,ENE,69,3.0,3.0,73,0.00,,,0.26,243,WeatherCatV1.14B232,2013-06-24 22:21:00,
2013-06-24 15:26:00,63.9,54.7,29.64,ENE,70,0.0,2.0,72,0.00,,,0.26,241,WeatherCatV1.14B232,2013-06-24 22:26:00,
2013-06-24 15:31:00,63.7,55.3,29.64,ENE,70,0.0,1.0,74,0.00,,,0.26,234,WeatherCatV1.14B232,2013-06-24 22:31:00,
2013-06-24 15:36:00,63.4,54.2,29.64,East,80,0.0,1.0,72,0.00,,,0.26,216,WeatherCatV1.14B232,2013-06-24 22:36:00,
2013-06-24 15:41:00,63.4,55.0,29.64,SE,141,0.0,1.0,74,0.00,,,0.26,232,WeatherCatV1.14B232,2013-06-24 22:41:00,
2013-06-24 15:46:00,63.2,54.8,29.64,East,91,2.0,4.0,74,0.00,,,0.26,283,WeatherCatV1.14B232,2013-06-24 22:46:00,
2013-06-24 15:51:00,63.5,55.4,29.64,ESE,109,1.0,2.0,75,0.00,,,0.26,290,WeatherCatV1.14B232,2013-06-24 22:51:00,
2013-06-24 15:56:00,63.5,55.1,29.64,East,88,0.0,1.0,74,0.00,,,0.26,322,WeatherCatV1.14B232,2013-06-24 22:56:00,
2013-06-24 16:01:00,64.0,54.8,29.64,East,88,0.0,0.0,72,0.00,,,0.26,387,WeatherCatV1.14B232,2013-06-24 23:01:00,
2013-06-24 16:06:00,64.3,55.1,29.64,East,96,0.0,1.0,72,0.00,,,0.26,390,WeatherCatV1.14B232,2013-06-24 23:06:00,
2013-06-24 16:11:00,64.7,55.1,29.64,ESE,109,0.0,3.0,71,0.00,,,0.26,390,WeatherCatV1.14B232,2013-06-24 23:11:00,
2013-06-24 16:16:00,64.7,55.8,29.64,SE,131,0.0,4.0,73,0.00,,,0.26,353,WeatherCatV1.14B232,2013-06-24 23:16:00,
2013-06-24 16:21:00,64.5,54.1,29.64,ESE,123,0.0,3.0,69,0.00,,,0.26,283,WeatherCatV1.14B232,2013-06-24 23:21:00,
2013-06-24 16:26:00,64.5,55.6,29.64,ESE,123,0.0,0.0,73,0.00,,,0.26,339,WeatherCatV1.14B232,2013-06-24 23:26:00,
2013-06-24 16:31:00,64.5,55.3,29.64,SE,146,2.0,4.0,72,0.00,,,0.26,316,WeatherCatV1.14B232,2013-06-24 23:31:00,
2013-06-24 16:36:00,64.7,55.5,29.64,SW,231,0.0,2.0,72,0.00,,,0.26,262,WeatherCatV1.14B232,2013-06-24 23:36:00,
2013-06-24 16:41:00,64.8,55.6,29.64,West,260,0.0,2.0,72,0.00,,,0.26,237,WeatherCatV1.14B232,2013-06-24 23:41:00,
2013-06-24 16:46:00,64.7,54.7,29.64,WSW,249,2.0,2.0,70,0.00,,,0.26,218,WeatherCatV1.14B232,2013-06-24 23:46:00,
2013-06-24 16:51:00,64.8,55.9,29.64,SSW,194,1.0,1.0,73,0.00,,,0.26,165,WeatherCatV1.14B232,2013-06-24 23:51:00,
2013-06-24 16:56:00,65.0,54.6,29.64,ESE,112,0.0,2.0,69,0.00,,,0.26,90,WeatherCatV1.14B232,2013-06-24 23:56:00,
2013-06-24 17:01:00,65.0,55.0,29.64,ESE,112,0.0,0.0,70,0.00,,,0.26,86,WeatherCatV1.14B232,2013-06-25 00:01:00,
2013-06-24 17:06:00,65.2,55.6,29.64,ESE,112,0.0,0.0,71,0.00,,,0.26,165,WeatherCatV1.14B232,2013-06-25 00:06:00,
2013-06-24 17:11:00,65.3,54.9,29.64,ESE,112,0.0,0.0,69,0.00,,,0.26,237,WeatherCatV1.14B232,2013-06-25 00:11:00,
2013-06-24 17:16:00,65.5,55.8,29.63,ESE,112,0.0,0.0,71,0.00,,,0.26,237,WeatherCatV1.14B232,2013-06-25 00:16:00,
2013-06-24 17:21:00,65.6,55.9,29.63,ESE,111,0.0,0.0,71,0.00,,,0.26,220,WeatherCatV1.14B232,2013-06-25 00:21:00,
2013-06-24 17:26:00,65.8,56.1,29.63,ESE,111,0.0,0.0,71,0.00,,,0.26,204,WeatherCatV1.14B232,2013-06-25 00:26:00,
2013-06-24 17:31:00,66.0,55.1,29.63,East,84,1.0,4.0,68,0.00,,,0.26,199,WeatherCatV1.14B232,2013-06-25 00:31:00,
2013-06-24 17:36:00,65.8,54.1,29.63,East,98,1.0,4.0,66,0.00,,,0.26,255,WeatherCatV1.14B232,2013-06-25 00:36:00,
2013-06-24 17:41:00,65.8,54.9,29.63,East,89,0.0,1.0,68,0.00,,,0.26,236,WeatherCatV1.14B232,2013-06-25 00:41:00,
2013-06-24 17:46:00,65.8,54.9,29.63,East,89,0.0,2.0,68,0.00,,,0.26,234,WeatherCatV1.14B232,2013-06-25 00:46:00,
2013-06-24 17:51:00,66.0,54.7,29.63,ESE,106,1.0,3.0,67,0.00,,,0.26,155,WeatherCatV1.14B232,2013-06-25 00:51:00,
2013-06-24 17:56:00,66.0,55.5,29.63,East,97,0.0,0.0,69,0.00,,,0.26,102,WeatherCatV1.14B232,2013-06-25 00:56:00,
2013-06-24 18:01:00,66.1,55.6,29.63,East,97,0.0,0.0,69,0.00,,,0.26,58,WeatherCatV1.14B232,2013-06-25 01:01:00,
2013-06-24 18:06:00,66.1,56.0,29.63,East,97,0.0,0.0,70,0.00,,,0.26,37,WeatherCatV1.14B232,2013-06-25 01:06:00,
2013-06-24 18:11:00,66.1,56.4,29.63,East,97,0.0,0.0,71,0.00,,,0.26,33,WeatherCatV1.14B232,2013-06-25 01:11:00,
2013-06-24 18:16:00,66.0,55.5,29.63,East,93,0.0,0.0,69,0.00,,,0.26,35,WeatherCatV1.14B232,2013-06-25 01:16:00,
2013-06-24 18:21:00,65.8,57.3,29.63,East,93,0.0,0.0,74,0.00,,,0.27,39,WeatherCatV1.14B232,2013-06-25 01:21:00,
2013-06-24 18:26:00,65.5,57.4,29.63,East,93,0.0,0.0,75,0.08,,,0.28,39,WeatherCatV1.14B232,2013-06-25 01:26:00,
2013-06-24 18:31:00,65.3,58.3,29.64,East,93,0.0,0.0,78,0.08,,,0.28,37,WeatherCatV1.14B232,2013-06-25 01:31:00,
2013-06-24 18:36:00,64.8,58.1,29.64,East,93,0.0,0.0,79,0.09,,,0.29,32,WeatherCatV1.14B232,2013-06-25 01:36:00,
2013-06-24 18:41:00,64.3,58.0,29.64,East,93,0.0,0.0,80,0.08,,,0.30,30,WeatherCatV1.14B232,2013-06-25 01:41:00,
2013-06-24 18:46:00,64.0,58.0,29.64,East,85,0.0,1.0,81,0.08,,,0.30,46,WeatherCatV1.14B232,2013-06-25 01:46:00,
2013-06-24 18:51:00,63.5,57.9,29.64,East,85,0.0,1.0,82,0.05,,,0.30,46,WeatherCatV1.14B232,2013-06-25 01:51:00,
2013-06-24 18:56:00,63.1,57.8,29.64,East,85,0.0,0.0,83,0.00,,,0.30,35,WeatherCatV1.14B232,2013-06-25 01:56:00,
2013-06-24 19:01:00,62.7,57.8,29.64,East,85,0.0,0.0,84,0.00,,,0.30,39,WeatherCatV1.14B232,2013-06-25 02:01:00,
2013-06-24 19:06:00,62.4,57.8,29.64,East,85,0.0,0.0,85,0.00,,,0.30,56,WeatherCatV1.14B232,2013-06-25 02:06:00,
2013-06-24 19:11:00,62.3,58.1,29.64,East,85,0.0,0.0,86,0.00,,,0.30,88,WeatherCatV1.14B232,2013-06-25 02:11:00,
2013-06-24 19:16:00,62.0,58.1,29.64,East,85,0.0,0.0,87,0.00,,,0.30,74,WeatherCatV1.14B232,2013-06-25 02:16:00,
2013-06-24 19:21:00,61.8,57.9,29.64,East,85,0.0,0.0,87,0.00,,,0.30,74,WeatherCatV1.14B232,2013-06-25 02:21:00,
2013-06-24 19:26:00,61.6,57.7,29.64,SE,128,0.0,0.0,87,0.00,,,0.30,58,WeatherCatV1.14B232,2013-06-25 02:26:00,
2013-06-24 19:31:00,61.3,57.4,29.64,SE,127,0.0,0.0,87,0.00,,,0.30,47,WeatherCatV1.14B232,2013-06-25 02:31:00,
2013-06-24 19:36:00,61.2,57.3,29.64,SE,127,0.0,0.0,87,0.00,,,0.30,28,WeatherCatV1.14B232,2013-06-25 02:36:00,
2013-06-24 19:41:00,61.0,57.1,29.64,SE,127,0.0,0.0,87,0.00,,,0.30,18,WeatherCatV1.14B232,2013-06-25 02:41:00,
2013-06-24 19:46:00,60.9,57.0,29.64,SE,127,0.0,0.0,87,0.00,,,0.30,11,WeatherCatV1.14B232,2013-06-25 02:46:00,
2013-06-24 19:51:00,60.7,57.1,29.64,SE,127,0.0,0.0,88,0.00,,,0.30,7,WeatherCatV1.14B232,2013-06-25 02:51:00,
2013-06-24 19:56:00,60.4,56.5,29.64,SE,127,0.0,0.0,87,0.00,,,0.30,5,WeatherCatV1.14B232,2013-06-25 02:56:00,
2013-06-24 20:01:00,60.2,56.6,29.64,SE,127,0.0,0.0,88,0.32,,,0.32,5,WeatherCatV1.14B232,2013-06-25 03:01:00,
2013-06-24 20:06:00,60.1,56.8,29.64,SE,128,0.0,0.0,89,0.22,,,0.34,0,WeatherCatV1.14B232,2013-06-25 03:06:00,
2013-06-24 20:11:00,59.9,56.6,29.64,SE,127,0.0,0.0,89,0.08,,,0.34,7,WeatherCatV1.14B232,2013-06-25 03:11:00,
2013-06-24 20:16:00,59.8,56.5,29.64,SE,127,0.0,0.0,89,0.05,,,0.34,5,WeatherCatV1.14B232,2013-06-25 03:16:00,
2013-06-24 20:21:00,59.5,56.3,29.64,SE,127,0.0,0.0,89,0.04,,,0.35,0,WeatherCatV1.14B232,2013-06-25 03:21:00,
2013-06-24 20:26:00,59.3,56.4,29.64,SE,127,0.0,0.0,90,0.04,,,0.35,0,WeatherCatV1.14B232,2013-06-25 03:26:00,
2013-06-24 20:31:00,59.2,56.3,29.64,SE,127,0.0,0.0,90,0.04,,,0.35,0,WeatherCatV1.14B232,2013-06-25 03:31:00,
2013-06-24 20:36:00,59.0,56.1,29.64,SE,128,0.0,0.0,90,0.04,,,0.35,0,WeatherCatV1.14B232,2013-06-25 03:36:00,
2013-06-24 20:41:00,59.0,56.1,29.64,SE,127,0.0,0.0,90,0.00,,,0.36,0,WeatherCatV1.14B232,2013-06-25 03:41:00,
2013-06-24 20:46:00,58.9,56.0,29.65,SE,127,0.0,0.0,90,0.14,,,0.37,0,WeatherCatV1.14B232,2013-06-25 03:46:00,
2013-06-24 20:51:00,58.7,56.1,29.65,SE,127,0.0,0.0,91,0.16,,,0.38,0,WeatherCatV1.14B232,2013-06-25 03:51:00,
2013-06-24 20:56:00,58.7,56.1,29.65,SE,127,0.0,0.0,91,0.08,,,0.39,0,WeatherCatV1.14B232,2013-06-25 03:56:00,
2013-06-24 21:01:00,58.6,56.0,29.64,SE,127,0.0,0.0,91,0.08,,,0.39,0,WeatherCatV1.14B232,2013-06-25 04:01:00,
2013-06-24 21:06:00,58.6,56.3,29.64,SE,127,0.0,0.0,92,0.05,,,0.39,0,WeatherCatV1.14B232,2013-06-25 04:06:00,
2013-06-24 21:11:00,58.4,56.1,29.64,SE,127,0.0,0.0,92,0.04,,,0.39,0,WeatherCatV1.14B232,2013-06-25 04:11:00,
2013-06-24 21:16:00,58.4,56.1,29.65,SE,127,0.0,0.0,92,0.00,,,0.39,0,WeatherCatV1.14B232,2013-06-25 04:16:00,
2013-06-24 21:21:00,58.3,56.0,29.65,SE,127,0.0,0.0,92,0.00,,,0.39,0,WeatherCatV1.14B232,2013-06-25 04:21:00,
2013-06-24 21:26:00,58.3,56.0,29.65,SE,127,0.0,0.0,92,0.00,,,0.39,0,WeatherCatV1.14B232,2013-06-25 04:26:00,
2013-06-24 21:31:00,58.1,55.8,29.65,SE,127,0.0,0.0,92,0.00,,,0.39,0,WeatherCatV1.14B232,2013-06-25 04:31:00,
2013-06-24 21:36:00,58.1,55.8,29.65,SE,127,0.0,0.0,92,0.00,,,0.39,0,WeatherCatV1.14B232,2013-06-25 04:36:00,
2013-06-24 21:41:00,58.0,55.7,29.65,SE,127,0.0,0.0,92,0.00,,,0.39,0,WeatherCatV1.14B232,2013-06-25 04:41:00,
2013-06-24 21:46:00,58.0,55.7,29.66,SE,127,0.0,0.0,92,0.00,,,0.39,0,WeatherCatV1.14B232,2013-06-25 04:46:00,
2013-06-24 21:51:00,58.0,56.0,29.66,SE,127,0.0,0.0,93,0.00,,,0.39,0,WeatherCatV1.14B232,2013-06-25 04:51:00,
2013-06-24 21:56:00,57.8,55.5,29.66,SE,127,0.0,0.0,92,0.00,,,0.39,0,WeatherCatV1.14B232,2013-06-25 04:56:00,
2013-06-24 22:01:00,57.8,55.5,29.66,SE,127,0.0,0.0,92,0.00,,,0.39,0,WeatherCatV1.14B232,2013-06-25 05:01:00,
2013-06-24 22:06:00,57.6,55.3,29.66,SE,127,0.0,0.0,92,0.00,,,0.39,0,WeatherCatV1.14B232,2013-06-25 05:06:00,
2013-06-24 22:11:00,57.5,55.5,29.66,SE,127,0.0,0.0,93,0.00,,,0.39,0,WeatherCatV1.14B232,2013-06-25 05:11:00,
2013-06-24 22:16:00,57.5,55.5,29.66,SE,127,0.0,0.0,93,0.00,,,0.39,0,WeatherCatV1.14B232,2013-06-25 05:16:00,
2013-06-24 22:21:00,57.3,55.3,29.66,SE,127,0.0,0.0,93,0.00,,,0.39,0,WeatherCatV1.14B232,2013-06-25 05:21:00,
2013-06-24 22:26:00,57.3,55.3,29.66,SE,127,0.0,0.0,93,0.00,,,0.39,0,WeatherCatV1.14B232,2013-06-25 05:26:00,
2013-06-24 22:31:00,57.2,55.2,29.66,South,182,0.0,0.0,93,0.00,,,0.39,0,WeatherCatV1.14B232,2013-06-25 05:31:00,
2013-06-24 22:36:00,57.2,55.2,29.66,South,182,0.0,0.0,93,0.00,,,0.39,0,WeatherCatV1.14B232,2013-06-25 05:36:00,
2013-06-24 22:41:00,57.0,55.0,29.66,South,182,0.0,0.0,93,0.00,,,0.39,0,WeatherCatV1.14B232,2013-06-25 05:41:00,
2013-06-24 22:46:00,57.0,55.0,29.66,South,182,0.0,0.0,93,0.00,,,0.39,0,WeatherCatV1.14B232,2013-06-25 05:46:00,
2013-06-24 22:51:00,56.9,54.9,29.66,South,182,0.0,0.0,93,0.00,,,0.39,0,WeatherCatV1.14B232,2013-06-25 05:51:00,
2013-06-24 22:56:00,56.9,54.9,29.66,South,182,0.0,0.0,93,0.00,,,0.39,0,WeatherCatV1.14B232,2013-06-25 05:56:00,
2013-06-24 23:01:00,56.7,54.7,29.66,South,182,0.0,0.0,93,0.00,,,0.39,0,WeatherCatV1.14B232,2013-06-25 06:01:00,
2013-06-24 23:06:00,56.7,54.7,29.66,South,182,0.0,0.0,93,0.00,,,0.39,0,WeatherCatV1.14B232,2013-06-25 06:06:00,
2013-06-24 23:11:00,56.6,54.6,29.66,South,182,0.0,0.0,93,0.00,,,0.39,0,WeatherCatV1.14B232,2013-06-25 06:11:00,
2013-06-24 23:16:00,56.5,54.5,29.66,South,182,0.0,0.0,93,0.00,,,0.39,0,WeatherCatV1.14B232,2013-06-25 06:16:00,
2013-06-24 23:21:00,56.5,54.5,29.66,South,182,0.0,0.0,93,0.00,,,0.39,0,WeatherCatV1.14B232,2013-06-25 06:21:00,
2013-06-24 23:26:00,56.3,54.3,29.66,South,182,0.0,0.0,93,0.00,,,0.39,0,WeatherCatV1.14B232,2013-06-25 06:26:00,
2013-06-24 23:31:00,56.2,54.2,29.66,South,182,0.0,0.0,93,0.00,,,0.39,0,WeatherCatV1.14B232,2013-06-25 06:31:00,
2013-06-24 23:36:00,56.2,54.2,29.66,South,182,0.0,0.0,93,0.00,,,0.39,0,WeatherCatV1.14B232,2013-06-25 06:36:00,
2013-06-24 23:41:00,56.0,54.0,29.66,South,182,0.0,0.0,93,0.00,,,0.39,0,WeatherCatV1.14B232,2013-06-25 06:41:00,
2013-06-24 23:46:00,56.0,54.0,29.66,South,182,0.0,0.0,93,0.00,,,0.39,0,WeatherCatV1.14B232,2013-06-25 06:46:00,
2013-06-24 23:51:00,55.9,53.9,29.66,South,182,0.0,0.0,93,0.00,,,0.39,0,WeatherCatV1.14B232,2013-06-25 06:51:00,
2013-06-24 23:56:00,55.9,53.9,29.66,South,182,0.0,0.0,93,0.00,,,0.39,0,WeatherCatV1.14B232,2013-06-25 06:56:00,